Regional Weather Roundup
Issued by NWS Sioux Falls, SD

Home | Current Version | Previous Version | Text Only | Print | Product List | Glossary On
Versions: 1 2 3 4 5 6 7 8 9 10 11 12 13 14 15 16 17 18 19 20 21 22 23 24 25 26 27 28 29 30 31 32 33 34 35 36 37 38 39 40 41 42 43 44 45 46 47 48 49 50
000
ASUS43 KFSD 051902
RWRFSD

WEATHER ROUNDUP FOR SE SOUTH DAKOTA/SW MINNESOTA/NW IOWA
NATIONAL WEATHER SERVICE SIOUX FALLS SD
200 PM CDT THU MAY 05 2016

NOTE: "FAIR" INDICATES FEW OR NO CLOUDS BELOW 12,000 FEET WITH NO
SIGNIFICANT WEATHER AND OR OBSTRUCTIONS TO VISIBILITY.


SDZ038>040-050-052>070-052000-
SOUTHEAST SOUTH DAKOTA

CITY           SKY/WX    TMP DP  RH WIND       PRES   REMARKS
BROOKINGS      SUNNY     77  43  29 SW14      29.98F
CHAMBERLAIN    NOT AVBL
HURON          SUNNY     81  47  30 S12       29.94F
MADISON        FAIR      75  41  29 SW15      30.00F
MITCHELL       SUNNY     80  45  28 S12       29.97F
SIOUX FALLS    MOSUNNY   73  47  39 SW9       30.01F
WINNER         FAIR      83  47  28 S14G25    29.95F
YANKTON        SUNNY     75  43  31 SW7       30.00F
$$

MNZ071-072-080-081-089-090-097-098-052000-
SOUTHWEST MINNESOTA

CITY           SKY/WX    TMP DP  RH WIND       PRES   REMARKS
FAIRMONT       SUNNY     70  34  26 S12       30.02F
JACKSON        SUNNY     72  30  21 SW7       30.03F
LUVERNE        SUNNY     73  36  25 SW9       30.02F
MARSHALL       SUNNY     78  39  24 S8G18     29.97F
MONTEVIDEO     SUNNY     81  41  24 SW10      29.96F
PIPESTONE      MOSUNNY   75  37  25 SW9G20    30.01F
REDWOOD FALLS  SUNNY     77  35  21 SW12      29.97F
TRACY          SUNNY     76  40  26 SW12      29.99F
WINDOM         SUNNY     73  36  25 CALM      30.02F
WORTHINGTON    SUNNY     73  37  27 SW9       30.03F
$$

IAZ001>003-012>014-020>022-031-032-NEZ013-014-SDZ071-052000-
NORTHWEST IOWA

CITY           SKY/WX    TMP DP  RH WIND       PRES   REMARKS
DENISON        SUNNY     70  34  26 VRB6      30.05F
ESTHERVILLE    SUNNY     70  36  28 SW8       30.03F
SIOUX CITY     SUNNY     76  47  35 S9        30.03F
SPENCER        SUNNY     72  34  24 VRB5      30.04F
STORM LAKE       N/A     72  34  25 VRB6      30.06F
$$

ABBREVIATIONS USED IN REMARKS
   TC - TEMPERATURE IN CELSIUS
  WCI - WIND CHILL INDEX
   HX - HEAT INDEX
  VSB - VISIBILITY





USA.gov is the U.S. government's official web portal to all federal, state and local government web resources and services.